Location: Altenhof
(50.2418°N, 10.8789°E)
Time: 04:14:14
(UTC+00:00)

Sich 1 - Pass Details

Date: 18 February 2020
Orbit: 595 x 624 km, 82.5° (Epoch: 02 April)

Event Time Altitude Azimuth Distance (km) Brightness Sun altitude
Rises 05:08:37 0° 348° (NNW) 2,852 6.3 -12.5°
Reaches altitude 10° 05:10:50 10° 346° (NNW) 1,946 5.4 -12.2°
Maximum altitude 05:15:07 71° 263° (W) 637 2.9 -11.5°
Drops below altitude 10° 05:19:23 10° 179° (S) 1,941 5.7 -10.8°
Sets 05:21:36 0° 178° (S) 2,843 6.6 -10.5°
